SM7GXQ Weather Reports


Display with metric or nautical units.
time (UTC)temp
F
wind
direction
speed
MPH
gust
MPH
rain 1hr
in
rain 24hr
in
rain mn
in
humidity
%
barometer
mb
20260902101505 65 238 2.0 9.0 0.00 0.02 0.00 82 1012.1
20260902100004 65 242 2.0 12.0 0.00 0.02 0.00 81 1012.0
20260902094504 65 239 3.0 9.0 0.00 0.02 0.00 81 1012.1
20260902091504 65 223 3.0 8.0 0.00 0.02 0.00 81 1012.1
20260902090005 65 221 3.0 9.0 0.00 0.02 0.00 80 1012.1
20260902084505 65 228 2.0 8.0 0.00 0.02 0.00 80 1012.1
20260902083005 64 237 2.0 9.0 0.00 0.02 0.00 82 1012.1
20260902074504 63 245 3.0 9.0 0.00 0.02 0.00 83 1012.0
20260902071505 61 213 2.0 6.0 0.00 0.02 0.00 84 1011.7
20260902070006 61 228 2.0 7.0 0.00 0.02 0.00 84 1011.7
20260902061504 60 238 1.0 7.0 0.00 0.02 0.00 86 1011.7
20260902060005 59 246 2.0 7.0 0.00 0.02 0.00 87 1011.7
20260902054503 59 249 3.0 7.0 0.00 0.02 0.00 89 1011.7
20260902051504 59 250 3.0 8.0 0.00 0.02 0.00 89 1011.5
20260902044504 58 238 3.0 7.0 0.00 0.02 0.00 90 1010.9
20260902041505 58 200 2.0 7.0 0.00 0.02 0.00 91 1010.9
20260902040004 58 235 2.0 8.0 0.00 0.02 0.00 90 1010.8
20260902034504 59 210 2.0 6.0 0.00 0.02 0.00 90 1010.8
20260902024504 59 239 3.0 7.0 0.00 0.02 0.00 90 1010.7
20260902010004 60 233 1.0 6.0 0.00 0.02 0.00 89 1010.5
20260902004504 61 217 2.0 7.0 0.00 0.02 0.00 88 1010.5
20260902001504 61 285 2.0 5.0 0.00 0.02 0.00 88 1010.4
20260902000004 61 273 2.0 7.0 0.00 0.02 0.00 88 1010.4
20260901233004 62 264 1.0 6.0 0.00 0.02 0.00 87 1010.4
20260901230005 62 229 2.0 5.0 0.00 0.02 0.00 87 1010.7
20260901224504 62 261 2.0 6.0 0.00 0.02 0.00 86 1010.3
20260901223006 62 276 3.0 7.0 0.00 0.02 0.00 85 1010.3
20260901221504 63 299 2.0 6.0 0.00 0.02 0.00 84 1010.2
20260901213005 64 272 3.0 7.0 0.00 0.02 0.02 83 1009.8
20260901204504 65 285 5.0 9.0 0.00 0.02 0.02 82 1009.7
20260901200004 65 265 3.0 9.0 0.00 0.02 0.02 83 1009.6
20260901194504 65 277 4.0 10.0 0.00 0.02 0.02 83 1009.4
20260901193005 65 277 2.0 8.0 0.00 0.02 0.02 83 1009.4
20260901190004 66 280 2.0 6.0 0.00 0.02 0.02 82 1009.0
20260901183005 67 275 2.0 7.0 0.00 0.02 0.02 79 1008.7
20260901181504 67 283 5.0 7.0 0.00 0.02 0.02 77 1008.7
20260901173005 67 222 1.0 3.0 0.00 0.02 0.02 86 1008.4
20260901163005 68 262 0.0 3.0 0.00 0.02 0.02 82 1008.0
20260901153005 71 217 2.0 8.0 0.01 0.02 0.02 77 1007.7
20260901150005 70 197 2.0 6.0 0.00 0.02 0.02 80 1007.8
20260901144505 69 216 2.0 6.0 0.00 0.02 0.02 80 1007.8
20260901133005 66 282 3.0 9.0 0.01 0.02 0.02 83 1007.8
20260901131504 69 212 4.0 12.0 0.00 0.01 0.01 77 1007.8
20260901124505 69 191 4.0 10.0 0.00 0.01 0.01 74 1007.8
20260901121504 70 218 3.0 8.0 0.00 0.01 0.01 72 1007.8
20260901114504 69 225 2.0 7.0 0.00 0.01 0.01 75 1007.9
20260901110005 67 197 3.0 6.0 0.00 0.01 0.01 78 1008.1
20260901104504 66 238 2.0 6.0 0.00 0.01 0.01 79 1008.1